Regional Weather Roundup
Issued by NWS

Home | Current Version | Previous Version | Graphics & Text | Print | Product List | Glossary On
Versions: 1 2 3 4 5 6 7 8 9 10 11 12 13 14 15 16 17 18 19 20 21 22 23 24 25 26 27 28 29 30 31 32 33 34 35 36 37 38 39 40 41 42 43 44 45 46 47 48 49 50
000
ASUS43 KLMK 071010
RWRKY
KENTUCKY REGIONAL WEATHER ROUNDUP
NATIONAL WEATHER SERVICE LOUISVILLE KY
600 AM EDT TUE JUL 07 2015

NOTE "FAIR" INDICATES FEW OR NO CLOUDS BELOW 12,000 FEET
WITH NO SIGNIFICANT WEATHER AND/OR OBSTRUCTIONS TO VISIBILITY.

KYZ001>023-026-027-061>063-070>075-071100-
WESTERN AND SOUTH CENTRAL KENTUCKY

CITY           SKY/WX    TMP DP  RH WIND       PRES   REMARKS
PADUCAH        TSTM      72  69  90 CALM      29.97R VSB 1/2
HENDERSON      MOCLDY    75  70  83 S13G18    29.94F
OWENSBORO      CLOUDY    76  74  93 S10       29.98S
HOPKINSVILLE   MOCLDY    75  72  91 SW10      30.01S
BOWLING GREEN  CLOUDY    75  71  87 S9        30.03F
GLASGOW        MOCLDY    73  72  97 S3        30.04S
$$

KYZ024-025-028>034-038-045-046-053-071100-
NORTH CENTRAL KENTUCKY

CITY           SKY/WX    TMP DP  RH WIND       PRES   REMARKS
LOUISVILLE/SDF CLOUDY    77  71  82 S8        29.98F
LOUISVILLE/LOU CLOUDY    76  71  85 S6        29.99F
FORT KNOX      MOCLDY    73  72  94 S8        30.00S
$$

KYZ035>037-039>044-047>052-055>060-089>105-071100-
NORTHEAST KENTUCKY

CITY           SKY/WX    TMP DP  RH WIND       PRES   REMARKS
LEXINGTON      PTCLDY    72  69  90 S10       30.04S
COVINGTON      CLOUDY    73  70  90 S8        29.99S
FRANKFORT      MOCLDY    73  69  87 S8        30.01S
$$

KYZ054-064>069-076>088-106>120-071100-
SOUTHEAST KENTUCKY

CITY           SKY/WX    TMP DP  RH WIND       PRES   REMARKS
JACKSON        CLEAR     68  66  93 CALM      30.10R FOG
LONDON         MOCLDY    70  65  84 S3        30.10S
SOMERSET       PTCLDY    68  68 100 CALM      30.10S
MIDDLESBORO    CLOUDY    66  66 100 CALM      30.14R FOG
MONTICELLO     SUNNY     73  72  97 S6        30.12R
$$



USA.gov is the U.S. government's official web portal to all federal, state and local government web resources and services.